This demonstration page uses our WeatherBlox Daily Observations layout. Learn more.

Left ArrowRight Arrow

36.17497, -115.13722

Hourly Observations for January 28, 2016

Temp ( °F °C ) Dew Point ( °F °C ) Humidity (%) Winds ( mph kmh ) Pressure ( in mb ) Visibility ( mi km ) Precip ( " mm )
12:53 am 00:53 Clear 43 6.1 22 -5.6 43 43 Calm 30.35 1028 10 16.0934 0 0
1:53 am 01:53 Clear 41 5 22 -5.6 47 47 N 3 6 30.35 1028 10 16.0934 0 0
2:53 am 02:53 Clear 41 5 22 -5.6 47 47 NNW 5 7 30.34 1027 10 16.0934 0 0
3:53 am 03:53 Clear 41 5 22 -5.6 47 47 Calm 30.33 1027 10 16.0934 0 0
4:53 am 04:53 Clear 42 5.6 22 -5.6 45 45 Calm 30.33 1027 10 16.0934 0 0
5:53 am 05:53 Clear 41 5 22 -5.6 47 47 NW 3 6 30.33 1027 10 16.0934 0 0
6:53 am 06:53 Sunny 39 3.9 21 -6.1 48 48 N 3 6 30.34 1028 10 16.0934 0 0
7:53 am 07:53 Sunny 43 6.1 23 -5 45 45 NW 5 7 30.35 1028 10 16.0934 0 0
8:53 am 08:53 Sunny 49 9.4 21 -6.1 33 33 NW 3 6 30.35 1028 10 16.0934 0 0
9:53 am 09:53 Sunny 53 11.7 22 -5.6 30 30 Calm 30.35 1028 10 16.0934 0 0
10:53 am 10:53 Mostly Sunny 55 12.8 22 -5.6 28 28 Calm 30.32 1027 N/A 0 0
11:53 am 11:53 Sunny 58 14.4 21 -6.1 24 24 Calm 30.28 1025 10 16.0934 0 0
12:53 pm 12:53 Sunny 60 15.6 21 -6.1 22 22 Calm 30.23 1024 10 16.0934 0 0
1:53 pm 13:53 Sunny 61 16.1 21 -6.1 21 21 E 5 7 30.2 1023 10 16.0934 0 0
2:53 pm 14:53 Sunny 60 15.6 20 -6.7 21 21 SE 3 6 30.18 1022 10 16.0934 0 0
3:53 pm 15:53 Sunny 61 16.1 20 -6.7 20 20 Calm 30.17 1022 10 16.0934 0 0
4:53 pm 16:53 Sunny 59 15 20 -6.7 22 22 Calm 30.17 1022 10 16.0934 0 0
5:53 pm 17:53 Mostly Clear 57 13.9 21 -6.1 25 25 WNW 3 6 30.2 1023 10 16.0934 0 0
6:53 pm 18:53 Clear 54 12.2 22 -5.6 29 29 Calm 30.19 1022 10 16.0934 0 0
7:53 pm 19:53 Clear 51 10.6 24 -4.4 35 35 NW 3 6 30.21 1023 10 16.0934 0 0
8:53 pm 20:53 Clear 48 8.9 25 -3.9 41 41 NNW 6 9 30.2 1023 10 16.0934 0 0
9:53 pm 21:53 Clear 49 9.4 25 -3.9 39 39 NW 5 7 30.2 1023 10 16.0934 0 0
10:53 pm 22:53 Clear 47 8.3 25 -3.9 42 42 Calm 30.19 1022 10 16.0934 0 0
11:53 pm 23:53 Clear 47 8.3 25 -3.9 42 42 Calm 30.18 1022 10 16.0934 0 0

Powered by AerisWeather